This is the latest recevied weather packets stored in our database for station/object KS5S. If no packets are shown the sender has not sent any weather packets the latest 10 day(s).
| Time | Temp. | Humidity | Pressure | Rain* | Wind** | Luminosity | Snow |
|---|---|---|---|---|---|---|---|
| 1778069696 | 13.89° C | 81% | 1010.1 hPa | 0 mm | - | 21 W/m² | - |
| 1778069392 | 13.89° C | 81% | 1010 hPa | 0 mm | - | 12 W/m² | - |
| 1778069090 | 13.89° C | 81% | 1010.2 hPa | 0 mm | - | 8 W/m² | - |
| 1778068787 | 14.44° C | 81% | 1010.1 hPa | 0 mm | - | 8 W/m² | - |
| 1778068485 | 14.44° C | 81% | 1009.8 hPa | 0 mm | - | 5 W/m² | - |
| 1778068183 | 14.44° C | 81% | 1010 hPa | 0 mm | - | 3 W/m² | - |
| 1778067881 | 14.44° C | 81% | 1010.1 hPa | 0 mm | - | 2 W/m² | - |
| 1778067579 | 14.44° C | 82% | 1009.8 hPa | 0 mm | - | 1 W/m² | - |
| 1778067277 | 14.44° C | 82% | 1009.8 hPa | 0 mm | - | 1 W/m² | - |
| 1778066973 | 14.44° C | 82% | 1009.6 hPa | 0 mm | - | 0 W/m² | - |
| 1778066671 | 14.44° C | 82% | 1009.6 hPa | 0 mm | - | 0 W/m² | - |
| 1778066367 | 14.44° C | 82% | 1009.6 hPa | 0 mm | - | 0 W/m² | - |
| 1778066066 | 15° C | 82% | 1009.6 hPa | 0 mm | - | 0 W/m² | - |
| 1778065762 | 15° C | 82% | 1009.4 hPa | 0 mm | - | 0 W/m² | - |
| 1778065460 | 15° C | 82% | 1009.2 hPa | 0 mm | - | 0 W/m² | - |
| 1778065156 | 15° C | 82% | 1009.1 hPa | 0 mm | - | 0 W/m² | - |
| 1778064853 | 15° C | 82% | 1009.3 hPa | 0 mm | - | 0 W/m² | - |
| 1778064550 | 15.56° C | 81% | 1008.9 hPa | 0 mm | - | 0 W/m² | - |
| 1778064248 | 15.56° C | 81% | 1008.8 hPa | 0 mm | - | 0 W/m² | - |
| 1778063946 | 15.56° C | 80% | 1009.1 hPa | 0 mm | - | 0 W/m² | - |
| 1778063643 | 15.56° C | 80% | 1008.8 hPa | 0 mm | - | 0 W/m² | - |
| 1778063340 | 15.56° C | 81% | 1008.7 hPa | 0 mm | - | 0 W/m² | - |
| 1778063038 | 15.56° C | 81% | 1008.7 hPa | 0 mm | - | 0 W/m² | - |
| 1778062735 | 15.56° C | 81% | 1008.5 hPa | 0 mm | - | 0 W/m² | - |
| 1778062431 | 15.56° C | 81% | 1008.6 hPa | 0 mm | - | 0 W/m² | - |
* Rain latest hour (hover to see other rain measurements)
** Current wind speed in m/s (hover to see current wind gust speed)